Location: *
(49.0044°N, 9.5056°E)
Time: 22:25:17
(UTC+00:00)

Cosmos 1959 Rocket - Pass Details

Date: 22 September 2019
Orbit: 947 x 997 km, 82.9° (Epoch: 15 October)

Event Time Altitude Azimuth Distance (km) Brightness Sun altitude
Rises 19:03:48 0° 350° (N) 3,634 7.9 -17.3°
Reaches altitude 10° 19:06:18 10° 351° (N) 2,688 7.2 -17.7°
Maximum altitude 19:12:27 87° 81° (E) 966 4.4 -18.7°
Enters shadow 19:18:28 11° 171° (S) 2,632 6.4 -19.6°
